Location: Hurecourt
(47.9030°N, 6.0653°E)
Time: 20:10:54
(UTC+00:00)

Okean 1-7 - Pass Details

Date: 14 July 2020
Orbit: 591 x 618 km, 82.5° (Epoch: 14 August)

Event Time Altitude Azimuth Distance (km) Brightness Sun altitude
Rises 01:11:25 0° 347° (NNW) 2,906 7.4 -17.6°
Reaches altitude 10° 01:13:41 10° 344° (NNW) 1,995 6.4 -17.5°
Maximum altitude 01:18:02 61° 265° (W) 704 3.1 -17.2°
Enters shadow 01:19:47 34° 198° (SSW) 1,026 3.6 -17.1°
